User: anonymous   Login
Location: Writing-on-Stone Provincial Park
(49.0825°N, 111.6163°W)
Time: 08:41:11
(UTC-06:00)
Language:

BREEZE-M DEB (TANK) - Orbit

View from above orbital plane
View from above orbital plane
View from above satellite
View from above satellite

Ground track
Ground track

The orbit data is extracted from the following two-line orbital elements,

1 29649U 06056B   15110.47949412  .00002871  00000-0  83911-3 0  9998
2 29649 049.4960 088.6310 5382172 030.7874 108.1867 04.96350289148467
Epoch (UTC): 20 April 2015 11:30:28
Eccentricity: 0.5382172
inclination: 49.4960°
perigee height: 325 km
apogee height: 15952 km
right ascension of ascending node: 88.6310°
argument of perigee: 30.7874°
revolutions per day: 4.96350289
mean anomaly at epoch: 108.1867°
orbit number at epoch: 14846

The dashed part of the orbit path shows where the satellite is in the earth's shadow,  

DLR